Date,TemperatureHighF,TemperatureAvgF,TemperatureLowF,DewpointHighF,DewpointAvgF,DewpointLowF,HumidityHigh,HumidityAvg,HumidityLow,PressureMaxIn,PressureMinIn,WindSpeedMaxMPH,WindSpeedAvgMPH,GustSpeedMaxMPH,PrecipitationSumIn
2014-1-1,45,42,39,45,42,39,100,100,100,30.19,30.03,9,0,9,0.00
2014-1-2,46,43,41,46,43,41,100,100,100,30.03,29.59,28,2,31,0.01
2014-1-3,45,39,30,45,37,-58,100,95,1,30.16,29.70,23,3,23,0.06
2014-1-4,40,33,28,40,31,-58,100,97,1,30.28,30.16,11,1,11,0.20
2014-1-5,42,34,29,42,28,-59,100,86,1,30.32,30.13,10,1,12,0.00
2014-1-6,40,35,31,40,28,-57,100,81,1,30.14,29.90,8,1,9,0.00
2014-1-7,40,37,34,40,36,-57,100,97,1,29.93,29.76,12,3,13,0.02
2014-1-8,48,42,38,48,42,38,100,100,100,29.79,29.36,24,3,29,0.00
2014-1-9,47,43,38,47,43,38,100,100,100,29.71,29.44,15,2,16,0.00
2014-1-10,51,46,42,50,46,42,100,100,100,29.80,29.17,25,4,25,0.00
2014-1-11,53,47,43,53,47,43,100,100,100,29.49,28.95,36,9,36,0.00
2014-1-12,50,44,40,50,44,40,100,100,100,29.97,29.49,19,4,24,0.01
2014-1-13,53,50,48,53,50,48,100,100,100,30.35,29.96,21,6,23,0.02
2014-1-14,50,49,46,50,49,46,100,100,100,30.43,30.34,13,1,13,0.00
2014-1-15,50,43,35,50,43,35,100,100,100,30.39,30.30,4,0,5,0.00
2014-1-16,49,37,29,49,35,-58,100,96,2,30.31,30.16,7,0,7,0.00
2014-1-17,44,35,30,44,31,-59,100,92,1,30.16,29.96,5,0,6,0.01
2014-1-18,43,36,31,43,36,31,100,100,100,30.05,29.96,9,0,10,0.00
2014-1-19,41,38,36,41,38,36,100,100,100,30.12,29.97,6,0,6,0.01
2014-1-20,49,38,32,49,38,32,100,100,100,30.15,30.07,7,0,7,0.01
2014-1-21,45,38,30,45,38,-58,100,99,12,30.11,30.01,10,0,11,0.01
2014-1-22,49,39,30,49,39,9,100,99,40,30.25,30.11,8,0,8,0.01
2014-1-23,48,34,27,48,33,-38,100,98,4,30.28,30.19,5,0,6,0.01
2014-1-24,54,38,29,54,36,-60,100,96,4,30.24,30.09,4,0,5,0.01
2014-1-25,53,38,30,52,37,-60,100,97,3,30.17,30.07,5,0,5,0.00
2014-1-26,45,34,27,45,31,-59,100,95,1,30.07,29.88,7,0,8,0.00
2014-1-27,46,36,29,46,34,-60,100,92,3,30.01,29.89,7,1,9,0.02
2014-1-28,42,41,39,42,41,39,100,100,100,30.01,29.69,10,1,11,0.00
2014-1-29,44,42,40,44,42,40,100,100,100,29.69,29.44,7,1,7,0.00
2014-1-30,41,39,36,41,39,36,100,100,100,29.74,29.55,23,6,24,0.00
2014-1-31,41,35,29,41,35,29,100,100,100,29.97,29.74,24,6,26,0.00
2014-2-1,34,31,28,34,29,-59,100,92,1,29.99,29.90,12,3,13,0.00
2014-2-2,38,34,31,38,34,31,100,100,100,29.90,29.78,24,5,25,0.00
2014-2-3,36,31,27,36,31,27,100,100,100,30.07,29.86,28,12,28,0.00
2014-2-4,28,26,24,27,6,-62,100,46,1,30.31,30.07,34,17,35,0.00
2014-2-5,28,24,22,28,8,-63,100,56,22,30.35,30.18,33,14,33,0.00
2014-2-6,30,25,20,30,14,-64,100,71,1,30.18,29.61,28,12,30,0.00
2014-2-7,33,28,23,33,17,-63,100,68,42,29.78,29.62,24,7,26,0.00
2014-2-8,35,30,25,35,23,-62,100,79,1,29.89,29.67,31,13,31,0.00
2014-2-9,34,32,29,34,32,29,100,100,100,29.92,29.75,19,5,19,0.00
2014-2-10,44,37,32,44,37,32,100,100,100,29.88,29.71,18,3,19,0.00
2014-2-11,46,43,39,46,43,39,100,100,100,29.91,29.28,13,2,19,0.00
2014-2-12,51,46,39,51,46,39,100,100,100,29.63,29.11,23,4,23,0.00
2014-2-13,52,46,40,52,46,40,100,100,100,29.83,29.43,23,5,24,0.00
2014-2-14,52,46,39,52,46,39,100,100,100,29.73,29.29,24,5,24,0.00
2014-2-15,51,42,38,51,42,38,100,100,100,29.73,28.93,39,7,39,0.00
2014-2-16,46,42,39,46,42,39,100,100,100,29.67,29.29,36,9,37,0.00
2014-2-17,47,42,39,46,42,39,100,100,100,29.67,29.43,19,3,19,0.00
2014-2-18,48,43,39,48,43,39,100,100,100,29.69,29.23,39,7,40,0.02
2014-2-19,46,41,37,46,41,37,100,100,100,29.87,29.56,17,4,17,0.00
2014-2-20,49,44,39,48,44,39,100,100,100,29.94,29.70,24,6,24,0.00
2014-2-21,42,38,30,42,38,-41,100,99,3,30.07,29.93,19,3,19,0.00
2014-2-22,34,32,29,34,30,-59,100,95,1,30.03,29.85,7,1,8,0.00
2014-2-23,33,30,28,33,27,-60,100,92,1,29.91,29.79,29,2,33,0.00
2014-2-24,35,31,28,35,27,-59,100,87,5,29.98,29.90,34,16,36,0.00
2014-2-25,44,39,34,44,39,34,100,100,100,30.00,29.83,29,14,34,0.00
2014-2-26,48,42,38,48,42,38,100,100,100,29.83,29.53,25,8,26,0.00
2014-2-27,45,40,35,45,40,35,100,100,100,29.56,29.44,7,0,7,0.00
2014-2-28,51,45,39,51,45,39,100,100,100,29.56,29.37,34,12,37,0.00
2014-3-1,40,33,29,40,30,-58,100,92,7,29.53,29.39,35,17,35,0.00
2014-3-2,32,30,28,32,26,-59,100,91,1,29.52,29.35,24,5,24,0.00
2014-3-3,46,38,32,46,38,32,100,100,100,29.68,29.42,13,0,14,0.00
2014-3-4,40,38,36,40,38,36,100,100,100,29.75,29.62,6,0,6,0.00
2014-3-5,48,42,36,48,42,36,100,100,100,29.62,29.16,17,5,19,0.07
2014-3-6,52,48,43,52,48,43,100,100,100,29.80,29.18,18,4,18,0.03
2014-3-7,56,50,44,56,50,44,100,100,100,30.05,29.79,13,2,14,0.00
2014-3-8,48,45,43,48,45,43,100,100,100,29.91,29.48,15,4,19,0.23
2014-3-9,56,51,44,56,51,44,100,100,100,29.81,29.54,13,1,16,0.01
2014-3-10,53,46,42,53,46,42,100,100,100,30.22,29.74,14,1,14,0.01
2014-3-11,55,44,34,55,44,34,100,100,100,30.39,30.22,6,0,6,0.00
2014-3-12,58,45,35,58,45,35,100,100,100,30.26,29.96,8,1,8,0.00
2014-3-13,55,47,41,55,47,41,100,100,100,29.98,29.75,8,0,8,0.00
2014-3-14,54,49,44,54,49,44,100,100,100,30.12,29.62,18,3,20,0.00
2014-3-15,52,46,42,52,46,42,100,100,100,30.13,29.87,16,3,16,0.00
2014-3-16,49,45,41,49,45,41,100,100,100,29.99,29.74,13,2,17,0.00
2014-3-17,48,42,35,48,42,35,100,100,100,30.12,29.74,27,5,32,0.03
2014-3-18,48,42,34,48,42,34,100,100,100,30.14,29.95,7,1,7,0.00
2014-3-19,49,44,40,49,44,40,100,100,100,29.95,29.77,20,3,23,0.00
2014-3-20,49,42,36,49,42,36,100,100,100,30.16,29.94,14,2,15,0.00
2014-3-21,49,40,30,49,37,-58,100,94,5,30.17,30.10,13,2,15,0.00
2014-3-22,42,37,32,42,37,32,100,100,100,30.13,30.06,11,2,14,0.00
2014-3-23,51,42,35,51,42,35,100,100,100,30.17,30.08,9,1,9,0.00
2014-3-24,59,50,40,59,50,40,100,100,100,30.08,29.65,23,8,23,0.00
2014-3-25,55,49,45,55,49,45,100,100,100,29.67,29.25,23,7,27,0.00
2014-3-26,54,48,44,54,48,44,100,100,100,29.38,29.30,12,2,13,0.01
2014-3-27,52,47,43,52,47,24,100,100,100,29.64,29.34,10,1,10,0.05
2014-3-28,53,47,43,53,47,43,100,100,100,29.65,29.40,15,4,17,0.02
2014-3-29,51,49,47,51,49,47,100,100,100,29.55,29.43,26,6,30,0.02
2014-3-30,52,46,42,52,46,42,100,100,100,29.80,29.55,14,3,14,0.00
2014-3-31,60,48,36,60,48,36,100,100,100,29.80,29.54,20,6,21,0.00
2014-4-1,58,50,39,58,50,39,100,100,100,29.66,29.55,24,4,24,0.00
2014-4-2,56,48,40,56,48,40,100,100,100,29.79,29.65,16,3,16,0.00
2014-4-3,55,47,39,55,47,39,100,100,100,29.78,29.63,22,4,22,0.00
2014-4-4,56,49,44,56,49,44,100,100,100,29.75,29.65,16,4,16,0.00
2014-4-5,51,48,44,51,48,44,100,100,100,29.84,29.72,14,1,16,0.00
2014-4-6,56,50,45,56,50,45,100,100,100,30.09,29.84,9,1,10,0.00
2014-4-7,66,54,47,66,54,47,100,100,100,30.09,29.86,12,2,12,0.00
2014-4-8,55,52,47,55,52,47,100,100,100,29.93,29.80,15,2,15,0.00
2014-4-9,56,48,40,56,48,40,100,100,100,30.06,29.91,13,2,14,0.00
2014-4-10,57,47,37,57,47,37,100,100,100,30.08,29.95,11,1,12,0.00
2014-4-11,59,51,46,59,51,46,100,100,100,29.96,29.83,13,3,14,0.00
2014-4-12,61,51,43,61,51,43,100,100,100,30.01,29.86,18,2,21,0.00
2014-4-13,66,53,40,66,53,40,100,100,100,30.13,29.99,20,3,20,0.00
2014-4-14,64,52,40,64,52,40,100,100,100,29.99,29.80,15,3,15,0.00
2014-4-15,56,51,45,56,51,45,100,100,100,29.96,29.84,20,4,20,0.00
2014-4-16,53,49,46,53,49,46,100,100,100,29.85,29.68,15,2,18,0.00
2014-4-17,54,49,44,54,49,44,100,100,100,29.68,29.46,18,3,19,0.10
2014-4-18,55,48,43,55,48,43,100,100,100,29.89,29.63,14,3,14,0.17
2014-4-19,54,48,43,54,48,43,100,100,100,29.93,29.55,26,6,29,0.00
2014-4-20,56,50,44,56,50,43,100,100,100,30.10,29.92,10,2,12,0.00
2014-4-21,58,51,45,58,51,45,100,100,100,29.93,29.62,14,4,14,0.00
2014-4-22,54,49,45,54,49,45,100,100,100,29.65,29.58,20,4,20,0.00
2014-4-23,56,49,43,56,49,43,100,100,100,29.68,29.44,14,3,15,0.00
2014-4-24,54,48,43,54,48,43,100,100,100,29.68,29.35,19,4,20,0.00
2014-4-25,56,49,42,56,49,42,100,100,100,29.70,29.61,15,2,16,0.00
2014-4-26,56,47,36,56,47,36,100,100,100,29.62,29.40,20,3,20,0.00
2014-4-27,53,48,44,53,48,44,100,100,100,29.87,29.40,20,5,23,0.00
2014-4-28,59,51,43,59,51,43,100,100,100,30.19,29.87,12,2,12,0.00
2014-4-29,71,58,47,71,58,47,100,100,100,30.32,30.19,19,5,19,0.00
2014-4-30,77,63,49,77,63,49,100,100,100,30.23,29.97,16,3,16,0.00
2014-5-1,82,65,48,82,65,48,100,100,100,29.98,29.72,11,1,11,0.00
2014-5-2,68,59,50,68,59,48,100,100,100,29.80,29.64,18,3,19,0.00
2014-5-3,55,52,49,55,52,-4,100,100,83,29.68,29.51,13,3,13,0.00
2014-5-4,52,49,47,52,49,47,100,100,100,29.63,29.50,16,3,18,0.00
2014-5-5,58,51,46,58,51,8,100,100,100,29.79,29.63,11,2,13,0.00
2014-5-6,60,54,49,60,54,49,100,100,100,29.82,29.77,15,2,17,0.00
2014-5-7,65,54,42,65,54,42,100,100,100,29.83,29.65,11,1,12,0.00
2014-5-8,61,51,45,60,51,45,100,100,100,29.66,29.41,16,1,16,0.00
2014-5-9,57,52,48,57,52,48,100,100,100,29.78,29.45,18,5,18,0.00
2014-5-10,58,51,47,58,51,47,100,100,100,30.06,29.77,9,2,10,0.00
2014-5-11,65,57,50,65,57,50,100,100,100,30.14,30.06,17,1,17,0.00
2014-5-12,74,60,46,74,60,46,100,100,100,30.18,30.08,13,2,13,0.00
2014-5-13,76,65,56,76,65,56,100,100,100,30.19,30.09,11,1,13,0.00
2014-5-14,79,65,50,79,65,50,100,100,100,30.13,29.91,10,1,10,0.00
2014-5-15,81,67,55,81,67,55,100,100,100,29.91,29.69,12,2,12,0.00
2014-5-16,67,61,55,67,61,55,100,100,100,29.88,29.75,20,4,21,0.00
2014-5-17,64,58,54,64,58,54,100,100,100,29.85,29.65,12,2,12,0.00
2014-5-18,66,58,49,66,58,49,100,100,100,29.66,29.58,14,2,15,0.00
2014-5-19,67,60,54,67,60,54,100,100,100,29.85,29.66,10,2,12,0.00
2014-5-20,70,61,55,70,61,55,100,100,100,29.91,29.84,12,2,12,0.00
2014-5-21,63,57,50,63,57,50,100,100,100,29.96,29.89,17,3,17,0.00
2014-5-22,72,61,49,72,61,49,100,100,100,29.93,29.78,10,1,11,0.00
2014-5-23,66,59,55,66,59,3,100,100,100,29.89,29.73,13,2,13,0.00
2014-5-24,63,57,51,63,57,51,100,100,100,29.97,29.88,18,3,18,0.00
2014-5-25,56,53,49,56,53,35,100,100,100,29.92,29.77,4,0,5,0.00
2014-5-26,62,55,52,62,55,-8,100,100,56,29.97,29.76,15,3,15,0.00
2014-5-27,63,55,47,63,55,47,100,100,100,29.96,29.86,14,2,14,0.00
2014-5-28,64,54,44,64,54,44,100,100,100,29.89,29.82,13,2,14,0.00
2014-5-29,61,55,49,61,55,40,100,100,100,30.01,29.88,15,4,16,0.00
2014-5-30,67,57,43,67,57,43,100,100,100,29.99,29.78,14,2,15,0.00
2014-5-31,71,60,47,71,60,47,100,100,100,29.86,29.80,12,2,13,0.00
2014-6-1,70,60,48,70,60,48,100,100,100,29.89,29.75,11,2,13,0.00
2014-6-2,72,61,49,72,61,49,100,100,100,29.78,29.62,14,2,14,0.00
2014-6-3,66,59,53,66,59,53,100,100,100,29.88,29.64,12,3,13,0.00
2014-6-4,65,58,49,65,58,49,100,100,100,29.92,29.86,14,3,14,0.00
2014-6-5,69,60,48,69,60,48,100,100,100,29.95,29.85,13,2,13,0.00
2014-6-6,72,60,46,72,60,46,100,100,100,29.92,29.85,14,2,14,0.00
2014-6-7,71,61,50,71,61,50,100,100,100,29.96,29.88,13,2,13,0.00
2014-6-8,70,62,54,70,62,54,100,100,100,29.98,29.83,15,4,17,0.00
2014-6-9,68,61,55,68,61,55,100,100,100,29.94,29.85,15,4,18,0.00
2014-6-10,62,56,52,62,56,-45,100,100,44,29.90,29.84,10,2,13,0.00
2014-6-11,70,61,48,70,61,19,100,100,100,29.88,29.60,11,2,11,0.00
2014-6-12,67,61,56,67,61,56,100,100,100,29.61,29.57,17,3,17,0.00
2014-6-13,62,56,52,62,56,-32,100,99,2,29.86,29.59,19,4,19,0.00
2014-6-14,57,54,52,57,54,-9,100,100,51,29.89,29.75,11,3,13,0.00
2014-6-15,63,56,52,63,56,-7,100,100,18,29.75,29.59,14,3,15,0.00
2014-6-16,63,56,49,63,56,-5,100,100,100,29.74,29.61,12,2,13,0.00
2014-6-17,66,59,53,66,59,53,100,100,100,29.88,29.73,13,3,14,0.00
2014-6-18,64,58,54,64,58,54,100,100,100,29.89,29.80,13,3,14,0.00
2014-6-19,69,62,54,69,62,5,100,100,61,29.81,29.70,9,1,10,0.00
2014-6-20,64,57,50,64,57,-32,100,100,100,29.95,29.77,15,3,15,0.00
2014-6-21,70,58,44,70,58,44,100,100,100,29.95,29.82,12,2,15,0.00
2014-6-22,74,62,46,74,62,46,100,100,100,29.90,29.77,12,1,13,0.00
2014-6-23,70,62,55,70,62,55,100,100,100,29.86,29.76,14,2,15,0.00
2014-6-24,72,65,57,72,65,-10,100,100,100,29.89,29.81,10,2,11,0.00
2014-6-25,76,66,53,76,66,53,100,100,100,29.81,29.55,15,2,15,0.00
2014-6-26,72,63,54,72,63,26,100,100,100,29.57,29.50,18,4,18,0.00
2014-6-27,65,60,56,65,60,-42,100,100,12,29.65,29.50,18,3,18,0.00
2014-6-28,67,61,56,67,61,1,100,99,13,29.80,29.64,16,3,18,0.00
2014-6-29,68,60,55,68,60,55,100,100,100,30.03,29.80,9,2,10,0.00
2014-6-30,74,63,48,74,63,48,100,100,100,30.05,29.81,14,2,17,0.00
2014-7-1,89,71,53,89,71,53,100,100,100,29.82,29.51,13,2,13,0.00
2014-7-2,73,68,59,73,68,59,100,100,100,29.76,29.50,21,4,21,0.00
2014-7-3,69,63,57,69,63,57,100,100,100,29.88,29.75,14,3,18,0.00
2014-7-4,71,61,51,71,61,51,100,100,100,29.85,29.79,12,2,16,0.00
2014-7-5,68,63,58,68,63,58,100,100,100,29.95,29.82,10,1,10,0.00
2014-7-6,71,65,59,71,65,-39,100,100,100,29.98,29.89,9,1,9,0.00
2014-7-7,78,68,57,78,68,57,100,100,100,29.94,29.81,13,2,16,0.00
2014-7-8,81,69,57,81,69,57,100,100,100,29.84,29.73,10,2,13,0.00
2014-7-9,75,66,57,75,66,13,100,100,100,29.80,29.70,17,3,22,0.00
2014-7-10,79,66,51,79,66,51,100,100,100,29.75,29.65,12,1,14,0.01
2014-7-11,84,70,55,84,70,55,100,100,100,29.77,29.69,11,1,11,0.00
2014-7-12,83,72,56,83,72,56,100,100,100,29.86,29.77,11,1,12,0.00
2014-7-13,88,73,58,88,73,58,100,100,100,29.90,29.76,11,2,12,0.00
2014-7-14,79,70,63,79,70,63,100,100,100,29.88,29.80,16,3,16,0.00
2014-7-15,81,69,57,81,69,57,100,100,100,29.89,29.75,11,2,12,0.00
2014-7-16,81,69,55,81,69,55,100,100,100,29.79,29.66,13,2,16,0.00
2014-7-17,74,65,56,74,65,56,100,100,100,29.79,29.68,14,3,14,0.00
2014-7-18,72,65,56,72,65,56,100,100,100,29.86,29.74,15,3,16,0.00
2014-7-19,70,65,60,70,65,60,100,100,100,29.78,29.67,27,6,27,0.00
2014-7-20,68,61,54,67,61,54,100,100,100,29.74,29.67,13,2,13,0.00
2014-7-21,72,62,52,72,62,52,100,100,100,29.83,29.74,10,2,12,0.00
2014-7-22,67,60,50,67,60,50,100,100,100,29.86,29.77,10,1,10,0.00
2014-7-23,64,59,54,64,59,-32,100,100,100,29.83,29.71,14,1,18,0.00
2014-7-24,66,59,54,66,59,-7,100,100,100,29.97,29.80,15,3,17,0.00
2014-7-25,72,62,50,71,62,50,100,100,100,29.97,29.86,11,1,12,0.00
2014-7-26,76,64,50,76,64,50,100,100,100,29.95,29.88,11,1,12,0.00
2014-7-27,80,66,52,80,66,52,100,100,100,29.98,29.85,11,1,11,0.00
2014-7-28,84,69,54,84,69,54,100,100,100,29.91,29.82,9,1,11,0.03
2014-7-29,83,68,54,83,68,54,100,100,100,29.91,29.81,10,1,11,0.01
2014-7-30,81,68,56,81,68,56,100,100,100,29.92,29.83,10,2,10,0.01
2014-7-31,82,69,54,82,69,54,100,100,100,29.91,29.78,12,1,12,0.04
2014-8-1,81,68,55,81,68,55,100,100,100,29.83,29.71,11,1,14,0.06
2014-8-2,82,70,56,82,70,56,100,100,100,29.77,29.69,11,2,12,0.01
2014-8-3,84,70,56,84,70,56,100,100,100,29.84,29.69,10,1,11,0.11
2014-8-4,84,70,54,84,70,54,100,100,100,29.77,29.66,9,2,10,0.15
2014-8-5,72,64,56,72,64,56,100,100,100,29.84,29.70,18,3,18,0.09
2014-8-6,75,65,55,75,65,55,100,100,100,29.90,29.81,16,2,17,0.01
2014-8-7,75,64,54,75,64,54,100,100,100,29.86,29.77,12,2,13,0.08
2014-8-8,73,64,54,73,64,54,100,100,100,29.88,29.78,13,2,14,0.10
2014-8-9,78,65,50,78,65,50,100,100,100,29.94,29.85,14,1,14,0.16
2014-8-10,84,69,52,84,69,52,100,100,100,29.92,29.74,10,1,12,0.09
2014-8-11,90,73,56,90,70,32,100,93,43,29.77,29.57,10,1,10,0.08
2014-8-12,80,70,65,80,70,65,100,100,100,29.66,29.56,12,2,12,0.01
2014-8-13,68,64,61,68,64,61,100,100,100,29.79,29.59,8,1,9,0.00
2014-8-14,70,63,57,70,63,57,100,100,100,29.81,29.73,10,1,10,0.00
2014-8-15,71,64,59,71,64,59,100,100,100,29.84,29.74,11,2,13,0.00
2014-8-16,73,64,60,73,64,-4,100,100,100,29.90,29.83,7,0,7,0.00
2014-8-17,78,67,59,77,67,59,100,100,100,29.91,29.80,9,1,11,0.00
2014-8-18,78,67,57,78,67,57,100,100,100,29.81,29.58,10,1,12,0.00
2014-8-19,79,68,61,79,68,61,100,100,100,29.60,29.52,13,2,16,0.00
2014-8-20,70,64,58,70,64,23,100,100,33,29.76,29.55,12,3,13,0.00
2014-8-21,70,61,53,70,61,0,100,100,19,29.80,29.73,15,2,15,0.00
2014-8-22,76,63,50,76,63,50,100,100,100,29.86,29.75,14,1,14,0.00
2014-8-23,79,66,52,79,66,52,100,100,100,29.92,29.74,10,1,12,0.00
2014-8-24,76,65,53,76,65,53,100,100,100,29.76,29.67,14,1,14,0.01
2014-8-25,80,66,52,80,66,52,100,100,100,29.80,29.73,9,1,10,0.00
2014-8-26,84,69,56,84,69,56,100,100,100,29.83,29.73,9,1,12,0.00
2014-8-27,79,68,58,79,68,58,100,100,78,29.81,29.72,12,2,13,0.00
2014-8-28,73,66,59,73,66,59,100,100,100,29.86,29.74,18,3,19,0.00
2014-8-29,66,62,58,66,62,58,100,100,100,29.75,29.70,13,2,13,0.00
2014-8-30,68,62,55,68,62,-20,100,100,100,29.71,29.64,16,2,16,0.00
2014-8-31,70,62,57,69,62,57,100,100,100,29.82,29.71,15,3,15,0.00
2014-9-1,71,62,53,71,62,53,100,100,100,29.85,29.74,14,1,14,0.00
2014-9-2,61,58,56,61,58,-43,100,100,44,29.74,29.56,15,2,17,0.00
2014-9-3,68,58,51,68,58,-45,100,99,1,29.90,29.63,11,1,12,0.00
2014-9-4,70,58,46,70,58,46,100,100,100,29.95,29.86,13,1,14,0.00
2014-9-5,79,63,48,78,63,48,100,100,100,29.96,29.82,13,1,14,0.00
2014-9-6,85,67,50,85,67,50,100,100,100,29.84,29.61,10,1,11,0.00
2014-9-7,80,65,50,80,65,50,100,100,100,29.66,29.53,12,2,12,0.03
2014-9-8,68,60,54,68,60,54,100,100,100,29.72,29.56,13,2,16,0.01
2014-9-9,68,60,53,68,60,52,100,100,100,29.90,29.71,11,1,11,0.00
2014-9-10,70,62,55,70,62,55,100,100,100,30.06,29.90,26,11,29,0.00
2014-9-11,74,62,47,74,62,47,100,100,100,30.13,29.93,22,6,22,0.01
2014-9-12,75,58,40,75,58,40,100,100,100,29.93,29.74,11,2,12,0.06
2014-9-13,82,62,45,82,62,45,100,100,100,29.78,29.62,13,2,15,0.09
2014-9-14,82,63,46,82,63,46,100,100,100,29.71,29.61,10,1,10,0.07
2014-9-15,86,65,47,86,65,47,100,100,100,29.67,29.55,10,1,10,0.19
2014-9-16,72,61,48,72,61,48,100,100,100,29.65,29.59,12,2,13,0.11
2014-9-17,72,63,56,72,63,56,100,100,100,29.64,29.47,7,1,7,0.00
2014-9-18,64,60,58,64,60,-2,100,100,100,29.72,29.49,10,2,12,0.00
2014-9-19,70,62,56,70,62,56,100,100,100,29.92,29.72,12,1,13,0.00
2014-9-20,76,62,51,76,62,51,100,100,100,29.92,29.67,9,1,10,0.00
2014-9-21,83,65,49,83,65,49,100,100,100,29.67,29.57,12,2,13,0.01
2014-9-22,70,63,58,70,63,58,100,100,100,29.77,29.66,8,1,10,0.00
2014-9-23,66,61,56,66,61,-16,100,100,100,29.67,29.43,14,2,17,0.00
2014-9-24,67,62,58,67,62,-42,100,100,10,29.63,29.42,16,3,19,0.00
2014-9-25,67,62,58,67,62,58,100,100,100,29.64,29.59,11,1,11,0.00
2014-9-26,60,58,56,60,58,32,100,100,92,29.89,29.64,6,1,7,0.00
2014-9-27,65,57,50,65,57,50,100,100,100,29.94,29.87,10,0,10,0.01
2014-9-28,67,56,49,67,56,49,100,100,100,29.89,29.66,9,1,10,0.00
2014-9-29,61,54,47,61,54,16,100,100,100,29.70,29.61,17,2,17,0.00
2014-9-30,64,58,53,64,58,-12,100,100,61,29.91,29.70,12,2,16,0.00
2014-10-1,62,56,51,62,56,35,100,100,100,29.99,29.91,12,2,14,0.00
2014-10-2,65,54,42,65,54,42,100,100,100,30.11,29.96,7,0,8,0.00
2014-10-3,69,57,47,69,57,47,100,100,100,30.11,29.91,13,1,13,0.01
2014-10-4,67,60,56,67,60,56,100,100,100,29.99,29.91,8,1,8,0.00
2014-10-5,72,63,56,72,63,56,100,100,100,29.94,29.84,6,0,7,0.01
2014-10-6,69,60,51,69,60,51,100,100,100,29.86,29.77,9,1,11,0.02
2014-10-7,69,59,53,69,59,13,100,100,100,29.77,29.68,9,1,10,0.01
2014-10-8,63,57,52,63,57,52,100,100,100,29.82,29.72,6,0,7,0.00
2014-10-9,70,57,49,70,57,49,100,100,100,29.85,29.77,5,0,5,0.00
2014-10-10,61,55,46,61,55,-8,100,100,100,29.82,29.74,16,1,16,0.00
2014-10-11,63,58,52,63,58,52,100,100,100,29.93,29.73,15,2,15,0.00
2014-10-12,59,55,49,59,54,-45,100,99,5,30.01,29.83,13,1,13,0.00
2014-10-13,69,57,52,69,57,-45,100,100,9,29.84,29.37,25,5,26,0.00
2014-10-14,58,53,50,58,53,-46,100,100,47,29.61,29.33,14,2,14,0.00
2014-10-15,55,53,51,55,52,-46,100,98,2,29.74,29.28,17,4,17,0.00
2014-10-16,62,55,52,62,55,-44,100,99,11,29.80,29.61,15,4,18,0.00
2014-10-17,62,55,52,62,55,4,100,100,30,29.61,29.45,19,6,19,0.00
2014-10-18,66,60,58,66,60,58,100,100,100,29.69,29.57,18,3,19,0.00
2014-10-19,73,64,57,73,64,57,100,100,100,29.58,29.38,23,6,27,0.00
2014-10-20,60,57,52,60,57,-30,100,100,100,29.53,29.42,14,1,16,0.00
2014-10-21,62,58,54,62,58,10,100,100,100,29.64,29.41,31,6,32,0.00
2014-10-22,63,56,52,63,56,-43,100,99,2,29.46,29.26,32,6,39,0.00
2014-10-23,56,52,48,56,51,-46,100,99,1,29.76,29.38,23,3,24,0.00
2014-10-24,55,50,46,55,50,22,100,100,100,29.86,29.61,19,4,21,0.00
2014-10-25,53,51,47,53,50,-27,100,99,17,29.60,29.01,23,8,26,0.00
2014-10-26,52,48,43,52,48,-19,100,100,100,29.91,29.41,13,2,16,0.00
2014-10-27,53,48,43,53,48,12,100,100,100,29.93,29.70,14,3,16,0.00
2014-10-28,58,50,47,58,50,-24,100,100,46,29.70,29.56,18,4,19,0.00
2014-10-29,60,56,51,60,56,-44,100,100,100,29.90,29.64,13,4,15,0.00
2014-10-30,58,53,52,58,53,-34,100,99,4,29.82,29.44,23,6,23,0.00
2014-10-31,52,50,43,52,50,-47,100,100,1,29.67,29.46,9,0,10,0.00
2014-11-1,50,44,40,50,44,40,100,100,100,29.80,29.64,3,0,4,0.00
2014-11-2,54,47,41,54,47,-27,100,100,79,29.89,29.80,6,0,6,0.00
2014-11-3,56,52,48,56,52,6,100,100,17,29.86,29.68,21,2,22,0.00
2014-11-4,58,54,50,58,53,-44,100,98,1,30.04,29.68,24,3,28,0.00
2014-11-5,52,50,47,52,50,4,100,100,100,30.06,29.72,16,4,19,0.00
2014-11-6,63,55,50,63,55,-28,100,100,54,30.04,29.45,35,7,35,0.00
2014-11-7,56,50,40,56,50,40,100,100,100,30.29,30.04,10,1,11,0.00
2014-11-8,52,44,35,52,44,35,100,100,100,30.18,29.81,7,0,7,0.00
2014-11-9,48,46,44,48,46,29,100,100,100,29.82,29.57,6,0,8,0.00
2014-11-10,44,43,42,44,43,42,100,100,100,30.05,30.02,22,7,23,0.00
2014-11-11,44,40,36,44,40,36,100,100,100,30.20,30.05,31,15,35,0.00
2014-11-12,42,38,33,42,38,33,100,100,100,30.20,29.92,33,13,34,0.02
2014-11-13,43,38,35,43,38,35,100,100,100,29.92,29.79,27,11,29,0.64
2014-11-14,42,37,34,42,37,34,100,100,100,30.13,29.84,23,10,24,0.07
2014-11-15,42,35,27,42,34,-59,100,96,13,30.37,30.13,24,7,26,0.04
2014-11-16,44,33,26,44,29,-49,100,89,6,30.36,30.21,8,0,8,0.03
2014-11-17,46,34,24,46,32,-61,100,94,6,30.22,30.00,6,0,6,0.13
2014-11-18,47,38,30,47,36,-59,100,95,8,30.00,29.87,9,0,9,0.10
2014-11-19,50,42,36,50,42,36,100,100,100,29.87,29.60,6,0,7,0.08
2014-11-20,46,44,40,46,44,40,100,100,100,29.75,29.62,9,0,12,0.00
2014-11-28,34,29,26,34,26,-48,100,88,11,29.35,29.25,25,9,28,0.00
2014-11-29,26,23,20,26,10,-64,100,61,1,30.07,29.34,38,15,39,0.00
2014-11-30,31,25,20,31,17,-64,100,76,3,30.09,29.94,23,6,24,0.00
2014-12-1,35,27,21,35,21,-60,100,83,1,30.06,29.93,12,2,12,0.00
2014-12-2,38,30,22,38,28,-45,100,94,4,30.06,29.79,10,2,11,0.00
2014-12-3,43,36,28,43,35,-58,100,95,14,29.79,29.58,20,4,22,0.00
2014-12-4,38,35,32,38,35,29,100,100,90,29.76,29.59,17,6,20,0.00
2014-12-5,45,39,35,45,39,35,100,100,100,29.79,29.55,23,10,26,0.00
2014-12-6,49,43,40,49,43,40,100,100,100,30.03,29.54,17,1,20,0.00
2014-12-7,50,45,40,50,45,40,100,100,100,30.05,29.76,22,6,23,0.00
2014-12-8,57,49,44,57,49,34,100,100,100,29.81,29.56,19,5,20,0.00
2014-12-9,63,58,49,63,57,-43,100,99,21,29.63,29.38,43,8,43,0.00
2014-12-10,66,55,49,66,55,-43,100,100,97,29.47,28.96,39,8,45,0.00
2014-12-11,58,49,46,58,49,46,100,100,100,29.34,28.94,37,8,41,0.00
2014-12-12,54,49,40,54,49,40,100,100,100,29.83,29.14,27,2,28,0.00
2014-12-13,47,42,37,47,42,37,100,100,100,30.04,29.83,1,0,2,0.00
2014-12-14,46,41,34,46,41,34,100,100,100,30.03,29.81,23,6,26,0.00
2014-12-15,46,43,40,46,43,40,100,100,100,29.83,29.63,30,10,30,0.00
2014-12-16,44,42,41,44,42,41,100,100,100,29.67,29.62,20,5,20,0.00
2014-12-17,45,43,41,45,43,41,100,100,100,29.71,29.59,16,2,17,0.00
2014-12-18,50,43,41,50,43,41,100,100,100,29.73,29.48,14,2,15,0.00
2014-12-19,49,47,44,49,47,44,100,100,100,29.71,29.51,14,2,16,0.00
2014-12-20,54,45,42,54,45,42,100,100,100,29.63,29.10,23,5,28,0.00
2014-12-21,54,50,47,54,50,47,100,100,100,29.87,29.22,16,2,18,0.00
2014-12-22,49,44,40,49,44,40,100,100,100,30.18,29.87,10,0,11,0.00
2014-12-23,46,43,41,46,43,41,100,100,100,30.13,29.79,14,2,15,0.00
2014-12-24,46,43,40,46,43,39,100,100,100,29.81,29.66,15,1,15,0.00
2014-12-25,44,38,33,44,38,33,100,100,100,30.09,29.81,10,0,11,0.00
2014-12-26,39,38,34,39,38,34,100,100,100,30.18,30.08,3,0,3,0.00
2014-12-27,46,40,37,46,40,37,100,100,100,30.10,29.76,12,0,13,0.00
2014-12-28,42,38,35,42,38,35,100,100,100,30.03,29.84,20,1,23,0.00
2014-12-29,38,34,28,38,34,-60,100,99,1,30.64,30.02,38,17,39,0.00
2014-12-30,32,27,23,32,19,-61,100,73,19,30.72,30.57,31,7,31,0.00
2014-12-31,36,28,22,36,24,-60,100,88,1,30.57,30.25,8,0,8,0.00
2015-1-1,37,29,22,37,27,-63,100,94,18,30.25,30.01,2,0,2,0.00
2015-1-2,35,33,30,35,33,30,100,100,100,30.03,29.87,6,0,6,0.00